| time (UTC) | temp F | wind direction | speed knots | gust knots | rain 1hr in | rain 24hr in | rain mn in | humidity % | barometer mb |
| 20260504041518 | 38 | 325 | 0.0 | 1.7 | 0.00 | 0.00 | 0.00 | 92 | 1013.6 |
| 20260504040538 | 38 | 336 | 0.9 | 2.6 | 0.00 | 0.00 | 0.00 | 92 | 1013.6 |
| 20260504035515 | 38 | 316 | 0.9 | 1.7 | 0.00 | 0.00 | 0.00 | 91 | 1013.6 |
| 20260504034519 | 38 | 334 | 0.9 | 1.7 | 0.00 | 0.00 | 0.00 | 91 | 1013.6 |
| 20260504033519 | 39 | 315 | 0.9 | 1.7 | 0.00 | 0.00 | 0.00 | 90 | 1013.5 |
| 20260504032539 | 39 | 327 | 0.9 | 2.6 | 0.00 | 0.00 | 0.00 | 90 | 1013.6 |
| 20260504031516 | 39 | 328 | 0.9 | 1.7 | 0.00 | 0.00 | 0.00 | 89 | 1013.7 |
| 20260504030516 | 40 | 315 | 0.9 | 2.6 | 0.00 | 0.00 | 0.00 | 88 | 1013.7 |
| 20260504025516 | 40 | 316 | 0.9 | 1.7 | 0.00 | 0.00 | 0.00 | 87 | 1013.8 |
| 20260504024520 | 40 | 328 | 0.9 | 2.6 | 0.00 | 0.00 | 0.00 | 86 | 1013.9 |
| 20260504023600 | 41 | 329 | 0.9 | 1.7 | 0.00 | 0.00 | 0.00 | 85 | 1013.9 |
| 20260504022519 | 41 | 316 | 0.9 | 1.7 | 0.00 | 0.00 | 0.00 | 84 | 1013.9 |
| 20260504021537 | 42 | 339 | 0.9 | 2.6 | 0.00 | 0.00 | 0.00 | 82 | 1014.0 |
| 20260504020517 | 42 | 333 | 0.9 | 1.7 | 0.00 | 0.00 | 0.00 | 81 | 1013.9 |
| 20260504015517 | 43 | 336 | 0.9 | 1.7 | 0.00 | 0.00 | 0.00 | 79 | 1013.9 |
| 20260504014518 | 44 | 335 | 0.9 | 1.7 | 0.00 | 0.00 | 0.00 | 76 | 1013.8 |
| 20260504013517 | 45 | 336 | 0.9 | 2.6 | 0.00 | 0.00 | 0.00 | 72 | 1013.7 |
| 20260504012518 | 45 | 338 | 0.9 | 2.6 | 0.00 | 0.00 | 0.00 | 70 | 1013.7 |
| 20260504011518 | 47 | 339 | 0.9 | 2.6 | 0.00 | 0.00 | 0.00 | 68 | 1013.6 |
| 20260504010518 | 49 | 338 | 0.9 | 2.6 | 0.00 | 0.00 | 0.00 | 63 | 1013.6 |
| 20260504005516 | 50 | 353 | 0.9 | 2.6 | 0.00 | 0.00 | 0.00 | 59 | 1013.6 |
| 20260504004536 | 52 | 344 | 1.7 | 3.5 | 0.00 | 0.00 | 0.00 | 54 | 1013.6 |
| 20260504003556 | 52 | 295 | 0.9 | 3.5 | 0.00 | 0.00 | 0.00 | 50 | 1013.5 |
| 20260504002519 | 53 | 310 | 0.9 | 4.3 | 0.00 | 0.00 | 0.00 | 48 | 1013.5 |
| 20260504001519 | 54 | 316 | 0.9 | 3.5 | 0.00 | 0.00 | 0.00 | 48 | 1013.5 |
| 20260504000517 | 55 | 308 | 0.9 | 4.3 | 0.00 | 0.00 | 0.00 | 46 | 1013.4 |
| 20260503235516 | 55 | 275 | 1.7 | 4.3 | 0.00 | 0.00 | 0.00 | 46 | 1013.4 |
| 20260503234517 | 56 | 276 | 1.7 | 6.1 | 0.00 | 0.00 | 0.00 | 47 | 1013.4 |
| 20260503233517 | 56 | 211 | 1.7 | 6.1 | 0.00 | 0.00 | 0.00 | 44 | 1013.4 |
| 20260503232517 | 56 | 259 | 1.7 | 6.1 | 0.00 | 0.00 | 0.00 | 46 | 1013.5 |
| 20260503231521 | 56 | 217 | 1.7 | 7.0 | 0.00 | 0.00 | 0.00 | 44 | 1013.5 |
| 20260503230537 | 56 | 211 | 1.7 | 4.3 | 0.00 | 0.00 | 0.00 | 44 | 1013.4 |
| 20260503225517 | 57 | 286 | 1.7 | 5.2 | 0.00 | 0.00 | 0.00 | 44 | 1013.5 |
| 20260503224517 | 57 | 236 | 2.6 | 6.1 | 0.00 | 0.00 | 0.00 | 44 | 1013.5 |
| 20260503223517 | 57 | 226 | 2.6 | 7.0 | 0.00 | 0.00 | 0.00 | 44 | 1013.6 |
| 20260503222518 | 58 | 271 | 1.7 | 4.3 | 0.00 | 0.00 | 0.00 | 44 | 1013.7 |
| 20260503221518 | 58 | 222 | 1.7 | 6.1 | 0.00 | 0.00 | 0.00 | 45 | 1013.6 |
| 20260503220518 | 58 | 257 | 1.7 | 5.2 | 0.00 | 0.00 | 0.00 | 44 | 1013.7 |
| 20260503215520 | 59 | 217 | 1.7 | 6.1 | 0.00 | 0.00 | 0.00 | 41 | 1013.6 |
| 20260503214538 | 57 | 188 | 0.9 | 3.5 | 0.00 | 0.00 | 0.00 | 46 | 1013.5 |
| 20260503213616 | 58 | 280 | 2.6 | 7.0 | 0.00 | 0.00 | 0.00 | 46 | 1013.5 |
| 20260503212516 | 59 | 261 | 2.6 | 7.0 | 0.00 | 0.00 | 0.00 | 45 | 1013.3 |
| 20260503211536 | 58 | 200 | 1.7 | 5.2 | 0.00 | 0.00 | 0.00 | 44 | 1013.5 |
| 20260503210519 | 58 | 174 | 1.7 | 5.2 | 0.00 | 0.00 | 0.00 | 45 | 1013.6 |
| 20260503205519 | 59 | 251 | 2.6 | 7.8 | 0.00 | 0.00 | 0.00 | 45 | 1013.7 |
| 20260503204520 | 58 | 282 | 2.6 | 6.1 | 0.00 | 0.00 | 0.00 | 48 | 1013.7 |
| 20260503203517 | 57 | 291 | 3.5 | 7.8 | 0.00 | 0.00 | 0.00 | 45 | 1014.0 |
| 20260503202517 | 57 | 191 | 2.6 | 7.8 | 0.00 | 0.00 | 0.00 | 43 | 1013.9 |
| 20260503201517 | 59 | 187 | 3.5 | 7.8 | 0.00 | 0.00 | 0.00 | 42 | 1014.1 |
| 20260503200537 | 59 | 171 | 3.5 | 8.7 | 0.00 | 0.00 | 0.00 | 42 | 1014.0 |
| 20260503195517 | 59 | 204 | 3.5 | 7.8 | 0.00 | 0.00 | 0.00 | 43 | 1014.2 |
| 20260503194517 | 61 | 210 | 1.7 | 5.2 | 0.00 | 0.00 | 0.00 | 44 | 1014.2 |
| 20260503193518 | 60 | 178 | 2.6 | 9.6 | 0.00 | 0.00 | 0.00 | 45 | 1014.3 |
| 20260503192538 | 59 | 219 | 3.5 | 7.8 | 0.00 | 0.00 | 0.00 | 46 | 1014.5 |
| 20260503191518 | 59 | 259 | 2.6 | 6.1 | 0.00 | 0.00 | 0.00 | 49 | 1014.7 |
| 20260503190518 | 58 | 223 | 2.6 | 7.0 | 0.00 | 0.00 | 0.00 | 45 | 1014.8 |
| 20260503185518 | 58 | 176 | 3.5 | 8.7 | 0.00 | 0.00 | 0.00 | 45 | 1015.0 |
| 20260503184516 | 59 | 246 | 3.5 | 7.8 | 0.00 | 0.00 | 0.00 | 48 | 1015.1 |
| 20260503183519 | 57 | 204 | 3.5 | 7.8 | 0.00 | 0.00 | 0.00 | 48 | 1015.3 |
| 20260503182519 | 57 | 243 | 3.5 | 7.8 | 0.00 | 0.00 | 0.00 | 48 | 1015.4 |
| 20260503181539 | 59 | 182 | 2.6 | 7.0 | 0.00 | 0.00 | 0.00 | 47 | 1015.3 |
| 20260503180519 | 58 | 251 | 2.6 | 7.0 | 0.00 | 0.00 | 0.00 | 48 | 1015.4 |
| 20260503175516 | 58 | 307 | 3.5 | 8.7 | 0.00 | 0.00 | 0.00 | 50 | 1015.5 |
| 20260503174516 | 58 | 170 | 4.3 | 14.8 | 0.00 | 0.00 | 0.00 | 46 | 1015.7 |
| 20260503173517 | 57 | 262 | 3.5 | 8.7 | 0.00 | 0.00 | 0.00 | 50 | 1015.7 |
| 20260503172517 | 57 | 291 | 3.5 | 7.8 | 0.00 | 0.00 | 0.00 | 52 | 1015.8 |
| 20260503171520 | 58 | 268 | 3.5 | 10.4 | 0.00 | 0.00 | 0.00 | 49 | 1015.9 |
| 20260503170517 | 57 | 191 | 3.5 | 9.6 | 0.00 | 0.00 | 0.00 | 49 | 1015.9 |
| 20260503150516 | 52 | 271 | 2.6 | 7.0 | 0.00 | 0.13 | 0.00 | 57 | 1016.7 |
| 20260503130519 | 42 | 256 | 0.9 | 3.5 | 0.00 | 0.17 | 0.00 | 79 | 1017.6 |
| 20260503110517 | 28 | 5 | 0.0 | 0.9 | 0.00 | 0.17 | 0.00 | 99 | 1016.8 |
| 20260503081520 | 31 | 356 | 0.0 | 0.9 | 0.00 | 0.17 | 0.00 | 98 | 1016.0 |
| 20260503080520 | 31 | 328 | 0.0 | 0.9 | 0.00 | 0.17 | 0.00 | 98 | 1016.0 |
| 20260503072541 | 33 | 5 | 0.0 | 0.9 | 0.00 | 0.17 | 0.00 | 98 | 1015.9 |
| 20260503071518 | 33 | 242 | 0.0 | 1.7 | 0.00 | 0.17 | 0.00 | 99 | 1015.9 |
| 20260503070515 | 33 | 269 | 0.0 | 0.9 | 0.00 | 0.17 | 0.00 | 98 | 1015.8 |
| 20260503054540 | 31 | 319 | 0.0 | 0.9 | 0.00 | 0.17 | 0.00 | 98 | 1016.0 |
| 20260503053517 | 31 | 296 | 0.0 | 0.9 | 0.00 | 0.17 | 0.00 | 97 | 1016.0 |
| 20260503052517 | 31 | 295 | 0.0 | 0.9 | 0.00 | 0.17 | 0.00 | 97 | 1016.1 |
| 20260503051517 | 30 | 309 | 0.0 | 0.9 | 0.00 | 0.17 | 0.00 | 97 | 1016.2 |
| 20260503050517 | 30 | 288 | 0.0 | 0.9 | 0.00 | 0.17 | 0.00 | 97 | 1016.2 |
| 20260503045518 | 30 | 319 | 0.0 | 1.7 | 0.00 | 0.17 | 0.00 | 97 | 1016.3 |
| 20260503044518 | 30 | 320 | 0.0 | 0.9 | 0.00 | 0.17 | 0.00 | 97 | 1016.3 |
| 20260503043518 | 30 | 295 | 0.0 | 0.9 | 0.00 | 0.17 | 0.00 | 96 | 1016.4 |
| 20260503042518 | 31 | 300 | 0.0 | 0.9 | 0.00 | 0.17 | 0.00 | 96 | 1016.3 |